KJ7AZ-3 Weather Reports


Display with metric or nautical units.
time (UTC)temp
F
wind
direction
speed
MPH
gust
MPH
rain 1hr
in
rain 24hr
in
rain mn
in
humidity
%
barometer
mb
20260905130416 63 107 0.0 0.0 0.00 0.00 0.00
20260905123416 62 107 0.0 0.0 0.00 0.00 0.00
20260905120416 62 107 0.0 0.0 0.00 0.00 0.00
20260905114917 63 107 0.0 0.0 0.00 0.00 0.00
20260905111916 61 107 0.0 0.0 0.00 0.00 0.00
20260905110416 62 107 0.0 0.0 0.00 0.00 0.00
20260905104916 62 107 0.0 0.0 0.00 0.00 0.00
20260905103416 62 107 0.0 0.0 0.00 0.00 0.00
20260905101916 63 107 0.0 0.0 0.00 0.00 0.00
20260905100416 65 107 0.0 0.0 0.00 0.00 0.00
20260905094915 65 107 0.0 0.0 0.00 0.00 0.00
20260905093416 65 107 0.0 0.0 0.00 0.00 0.00
20260905091916 65 107 0.0 0.0 0.00 0.00 0.00
20260905090416 65 107 0.0 0.0 0.00 0.00 0.00
20260905084916 65 107 0.0 0.0 0.00 0.00 0.00
20260905083416 64 107 0.0 0.0 0.00 0.00 0.00
20260905081916 65 107 0.0 0.0 0.00 0.00 0.00
20260905080416 64 107 0.0 0.0 0.00 0.00 0.00
20260905074916 64 107 0.0 0.0 0.00 0.00 0.00
20260905073416 66 69 0.0 3.0 0.00 0.00 0.00
20260905071916 66 174 0.0 0.0 0.00 0.00 0.00
20260905070416 65 174 0.0 0.0 0.00 0.00 0.00
20260905064916 65 174 0.0 0.0 0.00 0.00 0.00
20260905063416 65 174 0.0 0.0 0.00 0.00 0.00
20260905061917 64 174 0.0 0.0 0.00 0.00 0.00
20260905060417 65 174 0.0 0.0 0.00 0.00 0.00
20260905054917 64 174 0.0 0.0 0.00 0.00 0.00
20260905053417 65 174 0.0 0.0 0.00 0.00 0.00
20260905051917 63 174 0.0 0.0 0.00 0.00 0.00
20260905050417 64 174 0.0 0.0 0.00 0.00 0.00
20260905044917 65 174 0.0 0.0 0.00 0.00 0.00
20260905043417 65 174 0.0 0.0 0.00 0.00 0.00
20260905041917 65 174 0.0 0.0 0.00 0.00 0.00
20260905040416 65 174 0.0 0.0 0.00 0.00 0.00
20260905034916 65 174 0.0 0.0 0.00 0.00 0.00
20260905033417 67 174 0.0 0.0 0.00 0.00 0.00
20260905031917 68 174 0.0 0.0 0.00 0.00 0.00
20260905030417 69 174 0.0 0.0 0.00 0.00 0.00
20260905024917 69 174 0.0 0.0 0.00 0.00 0.00
20260905023417 71 174 0.0 0.0 0.00 0.00 0.00
20260905021917 71 174 0.0 0.0 0.00 0.00 0.00
20260905020417 71 150 0.0 0.0 0.00 0.00 0.00
20260905014916 71 132 2.0 2.0 0.00 0.00 0.00
20260905013416 73 179 2.0 0.0 0.00 0.00 0.00
20260905011916 74 134 3.0 1.0 0.00 0.00 0.00
20260905010416 75 158 2.0 6.0 0.00 0.00 0.00
20260905004916 75 149 2.0 2.0 0.00 0.00 0.00
20260905001915 76 86 3.0 1.0 0.00 0.00 0.00
20260905000417 77 181 4.0 2.0 0.00 0.00 0.00
20260904234915 78 165 6.0 3.0 0.00 0.00 0.00
20260904233414 81 149 1.0 0.0 0.00 0.00 0.00
20260904231914 84 91 1.0 0.0 0.00 0.00 0.00
20260904230413 84 110 2.0 1.0 0.00 0.00 0.00
20260904224914 83 82 5.0 4.0 0.00 0.00 0.00
20260904220412 85 97 8.0 4.0 0.00 0.00 0.00
20260904214911 88 58 8.0 5.0 0.00 0.00 0.00
20260904211909 87 87 11.0 7.0 0.00 0.00 0.00
20260904210409 92 8 8.0 12.0 0.00 0.00 0.00
20260904204909 89 322 5.0 5.0 0.00 0.00 0.00
20260904203408 89 263 1.0 0.0 0.00 0.00 0.00
20260904201907 90 6 0.0 3.0 0.00 0.00 0.00
20260904200407 89 301 0.0 0.0 0.00 0.00 0.00
20260904194906 89 41 0.0 4.0 0.00 0.00 0.00
20260904193406 89 307 1.0 5.0 0.00 0.00 0.00
20260904191906 87 354 3.0 0.0 0.00 0.00 0.00
20260904190406 83 330 2.0 1.0 0.00 0.00 0.00
20260904184905 87 194 1.0 0.0 0.00 0.00 0.00
20260904181905 85 274 2.0 0.0 0.00 0.00 0.00
20260904180405 84 293 3.0 2.0 0.00 0.00 0.00
20260904174905 83 333 2.0 3.0 0.00 0.00 0.00
20260904173405 83 221 4.0 1.0 0.00 0.00 0.00
20260904171905 82 311 5.0 10.0 0.00 0.00 0.00
20260904170405 81 311 3.0 5.0 0.00 0.00 0.00
20260904164905 81 283 3.0 5.0 0.00 0.00 0.00
20260904163405 80 345 4.0 1.0 0.00 0.00 0.00
20260904161904 77 253 3.0 1.0 0.00 0.00 0.00
20260904153405 73 27 2.0 2.0 0.00 0.00 0.00
20260904144905 71 359 5.0 1.0 0.00 0.00 0.00
20260904143404 71 304 3.0 5.0 0.00 0.00 0.00
20260904140404 71 13 3.0 3.0 0.00 0.00 0.00
20260904133405 67 27 0.0 0.0 0.00 0.00 0.00
20260904131905 66 325 0.0 0.0 0.00 0.00 0.00